Location: N�rnberg
(49.4489°N, 11.0797°E)
Time: 09:29:19
(UTC+01:00)

N. Korean satellite - Visible Passes

Search period start: 22 February 2018 00:00
Search period end: 04 March 2018 00:00
Orbit: 459 x 514 km, 97.2° (Epoch: 21 February)

Date Brightness Start Highest point End Pass type
(mag) Time Alt. Az. Time Alt. Az. Time Alt. Az.
22 Feb 10.2 05:56:10 10° NE 05:58:14 14° E 06:00:18 10° SE visible
23 Feb 10.3 19:20:58 10° WSW 19:22:10 11° W 19:23:22 10° WNW visible
24 Feb 9.6 18:55:31 10° SW 18:58:11 20° W 19:00:53 10° NW visible
25 Feb 9.5 06:17:35 10° NE 06:20:40 24° E 06:23:46 10° SSE visible
25 Feb 8.3 18:31:01 10° SSW 18:34:16 37° W 18:37:36 10° NNW visible
26 Feb 10.3 05:54:41 10° NE 05:56:43 14° E 05:58:47 10° ESE visible
27 Feb 10.3 19:19:13 10° WSW 19:20:36 12° W 19:22:00 10° WNW visible
28 Feb 9.6 18:53:52 10° SW 18:56:37 21° W 18:59:24 10° NW visible
01 Mar 9.5 06:16:03 10° NE 06:19:08 24° E 06:22:13 10° SSE visible
01 Mar 8.3 18:29:24 10° SSW 18:32:42 39° W 18:36:05 10° NNW visible
02 Mar 10.3 05:53:10 10° ENE 05:55:10 14° E 05:57:10 10° ESE visible
03 Mar 10.2 19:17:24 10° WSW 19:19:00 13° W 19:20:36 10° WNW visible
